Weather History for KLBF - May, 2013

Change the Weather History Date:

Thursday, May 23, 2013

  Actual Average Record
Temperature  
Mean Temperature 55 °F 60 °F  
Max Temperature 68 °F 74 °F 98 °F (1926)
Min Temperature 42 °F 47 °F 30 °F (2001)
Degree Days  
Heating Degree Days 10 6  
Month to date heating degree days 222 205  
Since 1 July heating degree days 6708 6595  
Cooling Degree Days 0 1  
Month to date cooling degree days 25 13  
Year to date cooling degree days 26 16  
Growing Degree Days 5 (Base 50)    
Moisture  
Dew Point 45 °F    
Average Humidity 71    
Maximum Humidity 93    
Minimum Humidity 48    
Precipitation  
Precipitation 0.00 in 0.11 in 1.15 in (1885)
Month to date precipitation 1.81 2.31  
Year to date precipitation 4.85 6.47  
Snow  
Snow 0.00 in 0.00 in 0.00 in ()
Month to date snowfall 0.9 0.0  
Since 1 July snowfall 30.2 28.5  
Snow Depth 0.00 in    
Sea Level Pressure  
Sea Level Pressure 30.15 in    
Wind  
Wind Speed 11 mph (East)    
Max Wind Speed 23 mph    
Max Gust Speed 30 mph    
Visibility 10 miles    
Events      
T = Trace of Precipitation, MM = Missing Value Source: NWS Daily Summary

Daily Weather History Graph

Daily Weather History Graph

Search for Another Location

Airport or City:

Trip Planner

Search our weather history database for the weather conditions in past years. The results will help you decide how hot, cold, wet, or windy it might be!

Date:

Astronomy

May. 23, 2013 Rise Set
Actual Time 6:17 AM CDT 9:01 PM CDT
Civil Twilight 5:45 AM CDT 9:34 PM CDT
Nautical Twilight 5:05 AM CDT 10:14 PM CDT
Astronomical Twilight 4:19 AM CDT 11:00 PM CDT
Moon 7:35 PM CDT (5/23) 5:04 AM CDT (5/23)
Length of Visible Light 15h 48m
Length of Day
14h 44m
Waxing Gibbous, 97% of the Moon is Illuminated
May 23
Waxing Gibbous
May 24
Full
May 31
Last Quarter
Jun 8
New
Jun 16
First Quarter

Hourly Weather History & Observations

Time (CDT) Temp. Windchill Dew Point Humidity Pressure Visibility Wind Dir Wind Speed Gust Speed Precip Events Conditions
12:53 AM 52.0 °F - 44.1 °F 74% 30.09 in 10.0 mi NNE 11.5 mph - N/A   Overcast
1:53 AM 50.0 °F - 46.0 °F 86% 30.09 in 10.0 mi NE 9.2 mph - N/A   Overcast
2:31 AM 50.0 °F - 44.6 °F 82% 30.13 in 10.0 mi NE 10.4 mph 19.6 mph N/A   Overcast
2:44 AM 48.2 °F - 44.6 °F 87% 30.12 in 10.0 mi NE 13.8 mph - N/A   Overcast
2:53 AM 48.9 °F - 44.1 °F 83% 30.09 in 10.0 mi NE 8.1 mph - N/A   Overcast
3:15 AM 46.4 °F 44.3 °F 42.8 °F 87% 30.13 in 10.0 mi NE 4.6 mph - N/A   Scattered Clouds
3:27 AM 48.2 °F - 42.8 °F 82% 30.14 in 10.0 mi NNE 3.5 mph - N/A   Mostly Cloudy
3:53 AM 46.0 °F - 42.1 °F 86% 30.12 in 10.0 mi Calm Calm - N/A   Scattered Clouds
4:53 AM 44.1 °F - 41.0 °F 89% 30.14 in 10.0 mi Calm Calm - N/A   Mostly Cloudy
5:00 AM 44.6 °F - 42.8 °F 93% 30.17 in 10.0 mi Calm Calm - N/A   Mostly Cloudy
5:53 AM 46.9 °F - 44.1 °F 90% 30.16 in 10.0 mi Calm Calm - N/A   Overcast
6:53 AM 48.0 °F - 44.1 °F 86% 30.17 in 10.0 mi Calm Calm - N/A   Mostly Cloudy
7:14 AM 48.2 °F - 44.6 °F 87% 30.20 in 10.0 mi WSW 3.5 mph - N/A   Overcast
7:42 AM 50.0 °F - 44.6 °F 82% 30.19 in 10.0 mi North 3.5 mph - N/A   Scattered Clouds
7:53 AM 50.0 °F - 44.1 °F 80% 30.18 in 10.0 mi Calm Calm - N/A   Partly Cloudy
8:08 AM 51.8 °F - 46.4 °F 82% 30.19 in 10.0 mi Variable 4.6 mph - N/A   Mostly Cloudy
8:18 AM 51.8 °F - 44.6 °F 76% 30.19 in 10.0 mi East 8.1 mph - N/A   Overcast
8:51 AM 51.8 °F - 44.6 °F 76% 30.18 in 10.0 mi ENE 13.8 mph - N/A   Scattered Clouds
8:53 AM 53.1 °F - 44.1 °F 71% 30.16 in 10.0 mi ENE 13.8 mph - N/A   Scattered Clouds
9:53 AM 55.0 °F - 45.0 °F 69% 30.18 in 10.0 mi East 15.0 mph 23.0 mph N/A   Scattered Clouds
10:53 AM 59.0 °F - 45.0 °F 60% 30.15 in 10.0 mi ENE 19.6 mph 26.5 mph N/A   Clear
11:53 AM 60.1 °F - 45.0 °F 57% 30.17 in 10.0 mi East 12.7 mph 23.0 mph N/A   Partly Cloudy
12:53 PM 62.1 °F - 46.9 °F 58% 30.17 in 10.0 mi ESE 13.8 mph 21.9 mph N/A   Partly Cloudy
1:53 PM 63.0 °F - 46.9 °F 56% 30.17 in 10.0 mi ESE 18.4 mph 26.5 mph N/A   Scattered Clouds
2:11 PM 62.6 °F - 46.4 °F 55% 30.20 in 10.0 mi ESE 16.1 mph 23.0 mph N/A   Mostly Cloudy
2:29 PM 62.6 °F - 46.4 °F 55% 30.20 in 10.0 mi SE 16.1 mph 23.0 mph N/A   Mostly Cloudy
2:53 PM 64.0 °F - 46.9 °F 54% 30.17 in 10.0 mi SE 16.1 mph 24.2 mph N/A   Mostly Cloudy
3:53 PM 66.0 °F - 46.9 °F 50% 30.15 in 10.0 mi ESE 20.7 mph 27.6 mph N/A   Partly Cloudy
4:53 PM 66.9 °F - 46.9 °F 49% 30.12 in 10.0 mi ESE 20.7 mph 25.3 mph N/A   Partly Cloudy
5:53 PM 66.9 °F - 48.0 °F 51% 30.12 in 10.0 mi SE 16.1 mph 24.2 mph N/A   Clear
6:53 PM 66.9 °F - 46.0 °F 47% 30.09 in 10.0 mi ESE 17.3 mph 26.5 mph N/A   Clear
7:53 PM 64.9 °F - 45.0 °F 48% 30.10 in 10.0 mi ESE 16.1 mph 23.0 mph N/A   Clear
8:53 PM 61.0 °F - 46.0 °F 58% 30.11 in 10.0 mi ESE 10.4 mph - N/A   Clear
9:53 PM 57.0 °F - 46.0 °F 67% 30.12 in 10.0 mi ESE 6.9 mph - N/A   Clear
10:53 PM 54.0 °F - 46.0 °F 75% 30.14 in 10.0 mi East 6.9 mph - N/A   Mostly Cloudy
11:53 PM 53.1 °F - 46.0 °F 77% 30.14 in 10.0 mi East 8.1 mph - N/A   Partly Cloudy